FW8705 Weather Reports


Display with metric or nautical units.
time (UTC)temp
F
wind
direction
speed
MPH
gust
MPH
rain 1hr
in
rain 24hr
in
rain mn
in
humidity
%
barometer
mb
20260502234602 49 0 0.0 0.0 0.00 0.00 0.00 72 1019.0
20260502233054 50 0 0.0 0.0 0.00 0.00 0.00 71 1019.2
20260502231552 50 0 0.0 0.0 0.00 0.00 0.00 69 1019.2
20260502230054 51 0 0.0 1.0 0.00 0.00 0.00 67 1019.2
20260502224554 54 0 0.0 0.0 0.00 0.00 0.00 62 1019.3
20260502223054 54 0 0.0 0.0 0.00 0.00 0.00 61 1019.5
20260502221613 55 0 0.0 0.0 0.00 0.00 0.00 60 1019.5
20260502220100 55 0 0.0 0.0 0.00 0.00 0.00 59 1019.6
20260502214555 56 0 0.0 0.0 0.00 0.00 0.00 58 1019.6
20260502213054 57 0 0.0 0.0 0.00 0.00 0.00 57 1019.8
20260502211556 58 0 0.0 0.0 0.00 0.00 0.00 56 1019.9
20260502210113 58 0 0.0 0.0 0.00 0.00 0.00 54 1019.9
20260502204555 59 0 0.0 0.0 0.00 0.00 0.00 53 1020.0
20260502203055 59 0 0.0 0.0 0.00 0.00 0.00 52 1020.0
20260502201556 60 0 0.0 0.0 0.00 0.00 0.00 52 1020.1
20260502200124 61 0 0.0 0.0 0.00 0.00 0.00 51 1020.3
20260502194555 61 0 0.0 0.0 0.00 0.00 0.00 51 1020.3
20260502193055 62 0 0.0 0.0 0.00 0.00 0.00 51 1020.3
20260502191603 63 0 0.0 0.0 0.00 0.00 0.00 49 1020.4
20260502190100 64 0 0.0 0.0 0.00 0.00 0.00 48 1020.3
20260502184555 65 0 0.0 0.0 0.00 0.00 0.00 47 1020.2
20260502183056 67 0 0.0 0.0 0.00 0.00 0.00 46 1020.2
20260502181555 68 0 0.0 0.0 0.00 0.00 0.00 45 1020.1
20260502170106 77 0 0.0 1.0 0.00 0.00 0.00 37 1020.0
20260502163058 78 0 0.0 1.0 0.00 0.00 0.00 36 1020.0
20260502161603 79 0 0.0 0.0 0.00 0.00 0.00 35 1020.2
20260502151612 79 0 0.0 7.0 0.00 0.00 0.00 34 1020.4
20260502130106 75 0 0.0 2.0 0.00 0.00 0.00 33 1021.8
20260502123057 74 0 0.0 6.0 0.00 0.00 0.00 33 1022.2
20260502121557 74 0 0.0 1.0 0.00 0.00 0.00 35 1022.4
20260502114557 72 0 0.0 1.0 0.00 0.00 0.00 37 1022.9
20260502113058 71 0 0.0 3.0 0.00 0.00 0.00 37 1023.1
20260502111601 70 0 0.0 3.0 0.00 0.00 0.00 40 1023.4
20260502104557 69 0 0.0 5.0 0.00 0.00 0.00 41 1023.6
20260502103106 69 0 0.0 1.0 0.00 0.00 0.00 42 1023.7
20260502101613 68 0 0.0 4.0 0.00 0.00 0.00 42 1023.9
20260502090114 65 0 0.0 3.0 0.00 0.00 0.00 49 1024.5
20260502070110 56 0 0.0 0.0 0.00 0.00 0.00 69 1025.1
20260502064610 54 0 0.0 0.0 0.00 0.00 0.00 72 1025.1
20260502063057 53 0 0.0 0.0 0.00 0.00 0.00 76 1025.1
20260502061555 51 0 0.0 0.0 0.00 0.00 0.00 78 1025.1
20260502060058 49 0 0.0 0.0 0.00 0.00 0.00 81 1025.2
20260502054600 47 0 0.0 0.0 0.00 0.00 0.00 83 1025.0
20260502053056 46 0 0.0 0.0 0.00 0.00 0.00 86 1024.9
20260502051556 44 0 0.0 0.0 0.00 0.00 0.00 89 1025.0
20260502050057 42 0 0.0 0.0 0.00 0.00 0.00 92 1024.9
20260502044559 40 0 0.0 0.0 0.00 0.00 0.00 92 1024.9
20260502043058 39 0 0.0 0.0 0.00 0.00 0.00 92 1024.9
20260502041604 38 0 0.0 0.0 0.00 0.00 0.00 91 1024.8
20260502040052 38 0 0.0 0.0 0.00 0.00 0.00 91 1024.7
20260502034554 38 0 0.0 0.0 0.00 0.00 0.00 91 1024.7
20260502033057 39 0 0.0 0.0 0.00 0.00 0.00 91 1024.7
20260502031602 39 0 0.0 0.0 0.00 0.00 0.00 90 1024.8
20260502030057 39 0 0.0 0.0 0.00 0.00 0.00 90 1024.7
20260502024606 39 0 0.0 0.0 0.00 0.00 0.00 90 1024.7
20260502023112 39 0 0.0 0.0 0.00 0.00 0.00 89 1024.7
20260502021553 40 0 0.0 0.0 0.00 0.00 0.00 89 1024.7
20260502020055 40 0 0.0 0.0 0.00 0.00 0.00 89 1024.6
20260502014557 41 0 0.0 0.0 0.00 0.00 0.00 88 1024.6
20260502013057 41 0 0.0 0.0 0.00 0.00 0.00 88 1024.7
20260502011552 41 0 0.0 0.0 0.00 0.00 0.00 87 1024.7
20260502010055 42 0 0.0 0.0 0.00 0.00 0.00 87 1024.7
20260502004554 42 0 0.0 0.0 0.00 0.00 0.00 86 1024.7
20260502003056 43 0 0.0 0.0 0.00 0.00 0.00 86 1024.8
20260502001629 43 0 0.0 0.0 0.00 0.00 0.00 85 1024.8
20260502000115 44 0 0.0 0.0 0.00 0.00 0.00 85 1024.9